START_TIME,STEP,MOV.,M35,t_acc.,PL05,t_acc.,PL06,t_acc.,PL07,t_acc.
1981-08-30 15:00:24.430 ,1,0,0.,4.8,3.,4.8,1.,4.8,0.,4.8
1981-08-30 15:00:29.230 ,1,0,0.,4.8,1.,4.8,0.,4.8,0.,4.8
1981-08-30 15:00:34.030 ,1,0,0.,4.8,2.,4.8,0.,4.8,0.,4.8
1981-08-30 15:00:38.830 ,1,0,0.,4.8,4.,4.8,1.,4.8,0.,4.8
1981-08-30 15:00:43.630 ,1,0,0.,4.8,1.,4.8,0.,4.8,2.,4.8
1981-08-30 15:00:48.430 ,0,0,0.,4.8,0.,4.8,0.,4.8,0.,4.8
1981-08-30 15:00:53.230 ,0,0,0.,4.8,2.,4.8,0.,4.8,0.,4.8
1981-08-30 15:00:58.030 ,0,0,0.,4.8,5.,4.8,0.,4.8,0.,4.8
1981-08-30 15:01:02.830 ,0,0,0.,4.8,2.,4.8,0.,4.8,1.,4.8
1981-08-30 15:01:07.630 ,0,0,0.,4.8,1.,4.8,0.,4.8,1.,4.8
1981-08-30 15:01:12.430 ,0,0,0.,4.8,1.,4.8,0.,4.8,0.,4.8
1981-08-30 15:01:17.230 ,0,0,0.,4.8,3.,4.8,0.,4.8,0.,4.8
1981-08-30 15:01:22.030 ,0,0,0.,4.8,3.,4.8,3.,4.8,1.,4.8
1981-08-30 15:01:26.830 ,0,0,0.,4.8,4.,4.8,2.,4.8,0.,4.8
1981-08-30 15:01:31.630 ,0,0,0.,4.8,2.,4.8,1.,4.8,0.,4.8
1981-08-30 15:01:36.430 ,0,0,0.,4.8,4.,4.8,0.,4.8,0.,4.8
1981-08-30 15:01:41.230 ,0,0,0.,4.8,4.,4.8,0.,4.8,0.,4.8
1981-08-30 15:01:46.030 ,0,0,0.,4.8,3.,4.8,0.,4.8,1.,4.8
1981-08-30 15:01:50.830 ,0,0,0.,4.8,4.,4.8,1.,4.8,0.,4.8
1981-08-30 15:01:55.630 ,0,0,0.,4.8,2.,4.8,3.,4.8,1.,4.8
1981-08-30 15:02:00.430 ,0,0,0.,4.8,2.,4.8,1.,4.8,0.,4.8
1981-08-30 15:02:05.230 ,0,0,0.,4.8,0.,4.8,0.,4.8,1.,4.8
1981-08-30 15:02:10.030 ,0,0,0.,4.8,2.,4.8,1.,4.8,1.,4.8
1981-08-30 15:02:14.830 ,0,0,0.,4.8,3.,4.8,0.,4.8,1.,4.8
1981-08-30 15:02:19.630 ,0,0,0.,4.8,2.,4.8,1.,4.8,1.,4.8
1981-08-30 15:02:24.420 ,1,0,0.,4.8,3.,4.8,0.,4.8,0.,4.8
1981-08-30 15:02:29.220 ,1,0,0.,4.8,2.,4.8,0.,4.8,0.,4.8
1981-08-30 15:02:34.020 ,1,0,0.,4.8,2.,4.8,1.,4.8,0.,4.8
1981-08-30 15:02:38.820 ,1,0,0.,4.8,1.,4.8,1.,4.8,0.,4.8
1981-08-30 15:02:43.630 ,1,0,0.,4.8,4.,4.8,1.,4.8,0.,4.8
1981-08-30 15:02:48.430 ,1,0,0.,4.8,2.,4.8,0.,4.8,1.,4.8
1981-08-30 15:02:53.220 ,1,0,0.,4.8,1.,4.8,0.,4.8,0.,4.8
1981-08-30 15:02:58.030 ,1,0,0.,4.8,2.,4.8,0.,4.8,1.,4.8
1981-08-30 15:03:02.820 ,1,0,0.,4.8,2.,4.8,0.,4.8,0.,4.8
1981-08-30 15:03:07.630 ,1,0,0.,4.8,1.,4.8,0.,4.8,0.,4.8
1981-08-30 15:03:12.420 ,2,0,0.,4.8,1.,4.8,0.,4.8,0.,4.8
1981-08-30 15:03:17.220 ,2,0,0.,4.8,1.,4.8,1.,4.8,1.,4.8
1981-08-30 15:03:22.020 ,2,0,0.,4.8,3.,4.8,0.,4.8,0.,4.8
1981-08-30 15:03:26.820 ,2,0,0.,4.8,2.,4.8,1.,4.8,0.,4.8
1981-08-30 15:03:31.630 ,2,0,0.,4.8,3.,4.8,0.,4.8,0.,4.8
1981-08-30 15:03:36.430 ,2,0,0.,4.8,2.,4.8,1.,4.8,0.,4.8
1981-08-30 15:03:41.220 ,2,0,0.,4.8,1.,4.8,0.,4.8,0.,4.8
1981-08-30 15:03:46.030 ,2,0,0.,4.8,1.,4.8,0.,4.8,2.,4.8
1981-08-30 15:03:50.820 ,2,0,0.,4.8,0.,4.8,1.,4.8,0.,4.8
1981-08-30 15:03:55.630 ,2,0,0.,4.8,2.,4.8,0.,4.8,0.,4.8
1981-08-30 15:04:00.430 ,3,0,0.,4.8,0.,4.8,1.,4.8,0.,4.8
1981-08-30 15:04:05.230 ,3,0,0.,4.8,0.,4.8,0.,4.8,0.,4.8
1981-08-30 15:04:10.030 ,3,0,0.,4.8,2.,4.8,0.,4.8,1.,4.8
1981-08-30 15:04:14.830 ,3,0,0.,4.8,3.,4.8,0.,4.8,0.,4.8
1981-08-30 15:04:19.630 ,3,0,0.,4.8,2.,4.8,1.,4.8,1.,4.8
1981-08-30 15:04:24.420 ,4,0,0.,4.8,2.,4.8,1.,4.8,0.,4.8
1981-08-30 15:04:29.230 ,4,0,0.,4.8,0.,4.8,2.,4.8,0.,4.8
1981-08-30 15:04:34.020 ,4,0,0.,4.8,4.,4.8,1.,4.8,0.,4.8
1981-08-30 15:04:38.830 ,4,0,0.,4.8,3.,4.8,1.,4.8,1.,4.8
1981-08-30 15:04:43.630 ,4,0,0.,4.8,2.,4.8,1.,4.8,0.,4.8
1981-08-30 15:04:48.420 ,5,0,0.,4.8,3.,4.8,0.,4.8,0.,4.8
1981-08-30 15:04:53.230 ,5,0,0.,4.8,1.,4.8,0.,4.8,0.,4.8
1981-08-30 15:04:58.020 ,5,0,0.,4.8,5.,4.8,0.,4.8,0.,4.8
1981-08-30 15:05:02.830 ,5,0,0.,4.8,2.,4.8,1.,4.8,0.,4.8
1981-08-30 15:05:07.630 ,5,0,0.,4.8,1.,4.8,0.,4.8,0.,4.8
1981-08-30 15:05:12.420 ,6,0,0.,4.8,2.,4.8,1.,4.8,1.,4.8
1981-08-30 15:05:17.230 ,6,0,0.,4.8,0.,4.8,1.,4.8,0.,4.8
1981-08-30 15:05:22.020 ,6,0,0.,4.8,2.,4.8,0.,4.8,0.,4.8
1981-08-30 15:05:26.830 ,6,0,0.,4.8,3.,4.8,0.,4.8,1.,4.8
1981-08-30 15:05:31.630 ,6,0,0.,4.8,3.,4.8,1.,4.8,0.,4.8
1981-08-30 15:05:36.420 ,7,0,0.,4.8,4.,4.8,1.,4.8,1.,4.8
1981-08-30 15:05:41.230 ,7,0,0.,4.8,1.,4.8,2.,4.8,0.,4.8
1981-08-30 15:05:46.020 ,7,0,0.,4.8,0.,4.8,0.,4.8,0.,4.8
1981-08-30 15:05:50.830 ,7,0,0.,4.8,0.,4.8,0.,4.8,0.,4.8
1981-08-30 15:05:55.630 ,7,0,0.,4.8,0.,4.8,0.,4.8,0.,4.8
1981-08-30 15:06:00.420 ,7,0,0.,4.8,1.,4.8,0.,4.8,0.,4.8
1981-08-30 15:06:05.230 ,7,0,0.,4.8,0.,4.8,0.,4.8,0.,4.8
1981-08-30 15:06:10.020 ,7,0,0.,4.8,1.,4.8,0.,4.8,0.,4.8
1981-08-30 15:06:14.830 ,7,0,0.,4.8,0.,4.8,0.,4.8,0.,4.8
1981-08-30 15:06:19.630 ,7,0,0.,4.8,0.,4.8,0.,4.8,0.,4.8
1981-08-30 15:06:24.420 ,6,0,0.,4.8,1.,4.8,0.,4.8,0.,4.8
1981-08-30 15:06:29.220 ,6,0,0.,4.8,1.,4.8,0.,4.8,0.,4.8
1981-08-30 15:06:34.020 ,6,0,0.,4.8,3.,4.8,1.,4.8,0.,4.8
1981-08-30 15:06:38.820 ,6,0,0.,4.8,4.,4.8,1.,4.8,0.,4.8
1981-08-30 15:06:43.620 ,6,0,0.,4.8,1.,4.8,0.,4.8,0.,4.8
1981-08-30 15:06:48.420 ,5,0,0.,4.8,1.,4.8,2.,4.8,0.,4.8
1981-08-30 15:06:53.220 ,5,0,0.,4.8,6.,4.8,0.,4.8,1.,4.8
1981-08-30 15:06:58.020 ,5,0,0.,4.8,2.,4.8,0.,4.8,0.,4.8
1981-08-30 15:07:02.820 ,5,0,0.,4.8,3.,4.8,0.,4.8,0.,4.8
1981-08-30 15:07:07.620 ,5,0,0.,4.8,4.,4.8,0.,4.8,0.,4.8
1981-08-30 15:07:12.420 ,4,0,0.,4.8,4.,4.8,0.,4.8,0.,4.8
1981-08-30 15:07:17.220 ,4,0,0.,4.8,0.,4.8,1.,4.8,1.,4.8
1981-08-30 15:07:22.020 ,4,0,0.,4.8,1.,4.8,0.,4.8,0.,4.8
1981-08-30 15:07:26.820 ,4,0,0.,4.8,4.,4.8,0.,4.8,0.,4.8
1981-08-30 15:07:31.620 ,4,0,0.,4.8,1.,4.8,1.,4.8,0.,4.8
1981-08-30 15:07:36.420 ,3,0,0.,4.8,0.,4.8,0.,4.8,1.,4.8
1981-08-30 15:07:41.220 ,3,0,0.,4.8,1.,4.8,2.,4.8,1.,4.8
1981-08-30 15:07:46.020 ,3,0,0.,4.8,1.,4.8,1.,4.8,0.,4.8
1981-08-30 15:07:50.820 ,3,0,0.,4.8,3.,4.8,0.,4.8,0.,4.8
1981-08-30 15:07:55.620 ,3,0,0.,4.8,1.,4.8,1.,4.8,1.,4.8
1981-08-30 15:08:00.420 ,2,0,0.,4.8,1.,4.8,1.,4.8,1.,4.8
1981-08-30 15:08:05.220 ,2,0,0.,4.8,0.,4.8,0.,4.8,0.,4.8
1981-08-30 15:08:10.020 ,2,0,0.,4.8,3.,4.8,0.,4.8,0.,4.8
1981-08-30 15:08:14.820 ,2,0,0.,4.8,0.,4.8,0.,4.8,0.,4.8
1981-08-30 15:08:19.620 ,2,0,0.,4.8,3.,4.8,0.,4.8,0.,4.8
1981-08-30 15:08:24.420 ,1,0,0.,4.8,3.,4.8,0.,4.8,0.,4.8
1981-08-30 15:08:29.220 ,1,0,0.,4.8,1.,4.8,0.,4.8,1.,4.8
1981-08-30 15:08:34.020 ,1,0,0.,4.8,1.,4.8,1.,4.8,0.,4.8
1981-08-30 15:08:38.820 ,1,0,0.,4.8,1.,4.8,2.,4.8,0.,4.8
1981-08-30 15:08:43.620 ,1,0,0.,4.8,2.,4.8,1.,4.8,0.,4.8
1981-08-30 15:08:48.420 ,0,0,0.,4.8,3.,4.8,0.,4.8,0.,4.8
1981-08-30 15:08:53.220 ,0,0,0.,4.8,4.,4.8,0.,4.8,0.,4.8
1981-08-30 15:08:58.020 ,0,0,0.,4.8,1.,4.8,0.,4.8,0.,4.8
1981-08-30 15:09:02.820 ,0,0,0.,4.8,0.,4.8,2.,4.8,1.,4.8
1981-08-30 15:09:07.620 ,0,0,0.,4.8,2.,4.8,2.,4.8,0.,4.8
1981-08-30 15:09:12.420 ,0,0,0.,4.8,1.,4.8,0.,4.8,1.,4.8
1981-08-30 15:09:17.220 ,0,0,0.,4.8,0.,4.8,0.,4.8,0.,4.8
1981-08-30 15:09:22.020 ,0,0,0.,4.8,0.,4.8,1.,4.8,0.,4.8
1981-08-30 15:09:26.820 ,0,0,0.,4.8,2.,4.8,2.,4.8,0.,4.8
1981-08-30 15:09:31.620 ,0,0,0.,4.8,2.,4.8,2.,4.8,0.,4.8
1981-08-30 15:09:36.420 ,1,0,0.,4.8,2.,4.8,0.,4.8,1.,4.8
1981-08-30 15:09:41.220 ,1,0,0.,4.8,2.,4.8,0.,4.8,0.,4.8
1981-08-30 15:09:46.020 ,1,0,0.,4.8,0.,4.8,0.,4.8,0.,4.8
1981-08-30 15:09:50.820 ,1,0,0.,4.8,1.,4.8,0.,4.8,1.,4.8
1981-08-30 15:09:55.620 ,1,0,0.,4.8,5.,4.8,0.,4.8,0.,4.8
1981-08-30 15:10:00.420 ,2,0,0.,4.8,2.,4.8,0.,4.8,0.,4.8
1981-08-30 15:10:05.220 ,2,0,0.,4.8,3.,4.8,0.,4.8,0.,4.8
1981-08-30 15:10:10.020 ,2,0,0.,4.8,3.,4.8,0.,4.8,1.,4.8
1981-08-30 15:10:14.820 ,2,0,0.,4.8,1.,4.8,1.,4.8,0.,4.8
1981-08-30 15:10:19.620 ,2,0,0.,4.8,1.,4.8,0.,4.8,0.,4.8
1981-08-30 15:10:24.420 ,3,0,0.,4.8,0.,4.8,1.,4.8,0.,4.8
1981-08-30 15:10:29.220 ,3,0,0.,4.8,5.,4.8,0.,4.8,1.,4.8
1981-08-30 15:10:34.020 ,3,0,,0,,0,,0,,0
1981-08-30 15:10:38.820 ,3,0,0.,4.8,0.,4.8,0.,4.8,1.,4.8
1981-08-30 15:10:43.620 ,3,0,0.,4.8,1.,4.8,1.,4.8,0.,4.8
1981-08-30 15:10:48.420 ,3,0,0.,4.8,3.,4.8,1.,4.8,0.,4.8
1981-08-30 15:10:53.220 ,3,0,0.,4.8,1.,4.8,2.,4.8,0.,4.8
1981-08-30 15:10:58.020 ,3,0,0.,4.8,3.,4.8,0.,4.8,0.,4.8
1981-08-30 15:11:02.820 ,3,0,0.,4.8,2.,4.8,0.,4.8,0.,4.8
1981-08-30 15:11:07.620 ,3,0,0.,4.8,3.,4.8,0.,4.8,0.,4.8
1981-08-30 15:11:12.420 ,4,0,0.,4.8,1.,4.8,0.,4.8,0.,4.8
1981-08-30 15:11:17.220 ,4,0,0.,4.8,3.,4.8,1.,4.8,0.,4.8
1981-08-30 15:11:22.020 ,4,0,0.,4.8,2.,4.8,2.,4.8,0.,4.8
1981-08-30 15:11:26.820 ,4,0,0.,4.8,3.,4.8,0.,4.8,0.,4.8
1981-08-30 15:11:31.620 ,4,0,0.,4.8,4.,4.8,0.,4.8,0.,4.8
1981-08-30 15:11:36.420 ,4,0,0.,4.8,3.,4.8,0.,4.8,0.,4.8
1981-08-30 15:11:41.220 ,4,0,0.,4.8,3.,4.8,0.,4.8,0.,4.8
1981-08-30 15:11:46.020 ,4,0,0.,4.8,1.,4.8,0.,4.8,0.,4.8
1981-08-30 15:11:50.820 ,4,0,0.,4.8,2.,4.8,0.,4.8,0.,4.8
1981-08-30 15:11:55.620 ,4,0,0.,4.8,1.,4.8,1.,4.8,1.,4.8
1981-08-30 15:12:00.420 ,5,0,0.,4.8,3.,4.8,0.,4.8,1.,4.8
1981-08-30 15:12:05.220 ,5,0,0.,4.8,1.,4.8,1.,4.8,3.,4.8
1981-08-30 15:12:10.020 ,5,0,0.,4.8,3.,4.8,0.,4.8,0.,4.8
1981-08-30 15:12:14.820 ,5,0,0.,4.8,3.,4.8,0.,4.8,0.,4.8
1981-08-30 15:12:19.620 ,5,0,0.,4.8,2.,4.8,0.,4.8,0.,4.8
1981-08-30 15:12:24.420 ,5,0,0.,4.8,1.,4.8,0.,4.8,2.,4.8
1981-08-30 15:12:29.220 ,5,0,0.,4.8,1.,4.8,1.,4.8,0.,4.8
1981-08-30 15:12:34.020 ,5,0,0.,4.8,0.,4.8,0.,4.8,0.,4.8
1981-08-30 15:12:38.820 ,5,0,0.,4.8,3.,4.8,0.,4.8,0.,4.8
1981-08-30 15:12:43.620 ,5,0,0.,4.8,1.,4.8,3.,4.8,1.,4.8
1981-08-30 15:12:48.420 ,6,0,0.,4.8,1.,4.8,2.,4.8,0.,4.8
1981-08-30 15:12:53.220 ,6,0,0.,4.8,3.,4.8,0.,4.8,1.,4.8
1981-08-30 15:12:58.020 ,6,0,0.,4.8,3.,4.8,1.,4.8,0.,4.8
1981-08-30 15:13:02.820 ,6,0,0.,4.8,1.,4.8,0.,4.8,0.,4.8
1981-08-30 15:13:07.620 ,6,0,0.,4.8,1.,4.8,2.,4.8,0.,4.8
1981-08-30 15:13:12.420 ,6,0,0.,4.8,3.,4.8,0.,4.8,0.,4.8
1981-08-30 15:13:17.220 ,6,0,0.,4.8,1.,4.8,0.,4.8,1.,4.8
1981-08-30 15:13:22.020 ,6,0,0.,4.8,6.,4.8,0.,4.8,0.,4.8
1981-08-30 15:13:26.820 ,6,0,0.,4.8,1.,4.8,1.,4.8,0.,4.8
1981-08-30 15:13:31.620 ,6,0,0.,4.8,2.,4.8,0.,4.8,0.,4.8
1981-08-30 15:13:36.420 ,7,0,0.,4.8,1.,4.8,1.,4.8,0.,4.8
1981-08-30 15:13:41.220 ,7,0,0.,4.8,1.,4.8,0.,4.8,0.,4.8
1981-08-30 15:13:46.020 ,7,0,0.,4.8,0.,4.8,0.,4.8,0.,4.8
1981-08-30 15:13:50.820 ,7,0,0.,4.8,0.,4.8,0.,4.8,0.,4.8
1981-08-30 15:13:55.620 ,7,0,0.,4.8,0.,4.8,0.,4.8,0.,4.8
1981-08-30 15:14:00.420 ,7,0,0.,4.8,0.,4.8,0.,4.8,0.,4.8
1981-08-30 15:14:05.220 ,7,0,0.,4.8,1.,4.8,0.,4.8,0.,4.8
1981-08-30 15:14:10.020 ,7,0,0.,4.8,1.,4.8,0.,4.8,0.,4.8
1981-08-30 15:14:14.820 ,7,0,0.,4.8,1.,4.8,0.,4.8,0.,4.8
1981-08-30 15:14:19.620 ,7,0,0.,4.8,1.,4.8,0.,4.8,0.,4.8
1981-08-30 15:14:24.420 ,7,0,0.,4.8,1.,4.8,0.,4.8,0.,4.8
1981-08-30 15:14:29.220 ,7,0,0.,4.8,1.,4.8,0.,4.8,0.,4.8
1981-08-30 15:14:34.020 ,7,0,0.,4.8,2.,4.8,0.,4.8,0.,4.8
1981-08-30 15:14:38.820 ,7,0,0.,4.8,0.,4.8,0.,4.8,0.,4.8
1981-08-30 15:14:43.620 ,7,0,0.,4.8,0.,4.8,0.,4.8,0.,4.8
1981-08-30 15:14:48.420 ,7,0,0.,4.8,1.,4.8,0.,4.8,0.,4.8
1981-08-30 15:14:53.220 ,7,0,0.,4.8,0.,4.8,1.,4.8,0.,4.8
1981-08-30 15:14:58.020 ,7,0,0.,4.8,0.,4.8,0.,4.8,1.,4.8
1981-08-30 15:15:02.820 ,7,0,0.,4.8,0.,4.8,0.,4.8,0.,4.8
1981-08-30 15:15:07.620 ,7,0,0.,4.8,0.,4.8,0.,4.8,0.,4.8
1981-08-30 15:15:12.420 ,6,0,0.,4.8,1.,4.8,0.,4.8,0.,4.8
1981-08-30 15:15:17.220 ,6,0,0.,4.8,1.,4.8,0.,4.8,0.,4.8
1981-08-30 15:15:22.020 ,6,0,0.,4.8,4.,4.8,0.,4.8,1.,4.8
1981-08-30 15:15:26.820 ,6,0,0.,4.8,3.,4.8,1.,4.8,2.,4.8
1981-08-30 15:15:31.620 ,6,0,0.,4.8,2.,4.8,1.,4.8,0.,4.8
1981-08-30 15:15:36.420 ,6,0,0.,4.8,0.,4.8,1.,4.8,1.,4.8
1981-08-30 15:15:41.220 ,6,0,0.,4.8,4.,4.8,1.,4.8,0.,4.8
1981-08-30 15:15:46.020 ,6,0,0.,4.8,1.,4.8,3.,4.8,0.,4.8
1981-08-30 15:15:50.820 ,6,0,0.,4.8,7.,4.8,0.,4.8,0.,4.8
1981-08-30 15:15:55.620 ,6,0,0.,4.8,1.,4.8,0.,4.8,2.,4.8
1981-08-30 15:16:00.420 ,5,0,0.,4.8,0.,4.8,1.,4.8,0.,4.8
1981-08-30 15:16:05.220 ,5,0,0.,4.8,5.,4.8,0.,4.8,0.,4.8
1981-08-30 15:16:10.020 ,5,0,0.,4.8,4.,4.8,1.,4.8,0.,4.8
1981-08-30 15:16:14.820 ,5,0,0.,4.8,2.,4.8,0.,4.8,1.,4.8
1981-08-30 15:16:19.620 ,5,0,0.,4.8,1.,4.8,1.,4.8,0.,4.8
1981-08-30 15:16:24.420 ,5,0,0.,4.8,3.,4.8,0.,4.8,2.,4.8
1981-08-30 15:16:29.220 ,5,0,0.,4.8,3.,4.8,0.,4.8,0.,4.8
1981-08-30 15:16:34.020 ,5,0,0.,4.8,2.,4.8,0.,4.8,1.,4.8
1981-08-30 15:16:38.820 ,5,0,0.,4.8,3.,4.8,1.,4.8,0.,4.8
1981-08-30 15:16:43.620 ,5,0,0.,4.8,3.,4.8,1.,4.8,0.,4.8
1981-08-30 15:16:48.420 ,4,0,0.,4.8,1.,4.8,0.,4.8,0.,4.8
1981-08-30 15:16:53.220 ,4,0,0.,4.8,0.,4.8,0.,4.8,0.,4.8
1981-08-30 15:16:58.020 ,4,0,0.,4.8,1.,4.8,0.,4.8,0.,4.8
1981-08-30 15:17:02.820 ,4,0,0.,4.8,2.,4.8,1.,4.8,0.,4.8
1981-08-30 15:17:07.620 ,4,0,0.,4.8,0.,4.8,1.,4.8,0.,4.8
1981-08-30 15:17:12.420 ,4,0,0.,4.8,4.,4.8,1.,4.8,0.,4.8
1981-08-30 15:17:17.220 ,4,0,0.,4.8,1.,4.8,0.,4.8,0.,4.8
1981-08-30 15:17:22.020 ,4,0,0.,4.8,3.,4.8,2.,4.8,0.,4.8
1981-08-30 15:17:26.820 ,4,0,0.,4.8,2.,4.8,2.,4.8,1.,4.8
1981-08-30 15:17:31.620 ,4,0,0.,4.8,1.,4.8,1.,4.8,1.,4.8
1981-08-30 15:17:36.420 ,3,0,0.,4.8,4.,4.8,2.,4.8,0.,4.8
1981-08-30 15:17:41.220 ,3,0,0.,4.8,1.,4.8,0.,4.8,0.,4.8
1981-08-30 15:17:46.020 ,3,0,0.,4.8,2.,4.8,1.,4.8,1.,4.8
1981-08-30 15:17:50.820 ,3,0,0.,4.8,0.,4.8,0.,4.8,0.,4.8
1981-08-30 15:17:55.620 ,3,0,0.,4.8,1.,4.8,0.,4.8,0.,4.8
1981-08-30 15:18:00.420 ,3,0,0.,4.8,1.,4.8,1.,4.8,0.,4.8
1981-08-30 15:18:05.220 ,3,0,0.,4.8,0.,4.8,0.,4.8,1.,4.8
1981-08-30 15:18:10.020 ,3,0,0.,4.8,3.,4.8,1.,4.8,0.,4.8
1981-08-30 15:18:14.820 ,3,0,0.,4.8,0.,4.8,1.,4.8,1.,4.8
1981-08-30 15:18:19.620 ,3,0,0.,4.8,3.,4.8,1.,4.8,0.,4.8
1981-08-30 15:18:24.420 ,2,0,0.,4.8,0.,4.8,0.,4.8,0.,4.8
1981-08-30 15:18:29.220 ,2,0,0.,4.8,5.,4.8,1.,4.8,0.,4.8
1981-08-30 15:18:34.020 ,2,0,0.,4.8,4.,4.8,2.,4.8,0.,4.8
1981-08-30 15:18:38.820 ,2,0,0.,4.8,0.,4.8,1.,4.8,0.,4.8
1981-08-30 15:18:43.620 ,2,0,0.,4.8,1.,4.8,1.,4.8,0.,4.8
1981-08-30 15:18:48.420 ,2,0,0.,4.8,1.,4.8,1.,4.8,2.,4.8
1981-08-30 15:18:53.220 ,2,0,0.,4.8,1.,4.8,0.,4.8,1.,4.8
1981-08-30 15:18:58.020 ,2,0,0.,4.8,2.,4.8,0.,4.8,0.,4.8
1981-08-30 15:19:02.820 ,2,0,0.,4.8,0.,4.8,0.,4.8,1.,4.8
1981-08-30 15:19:07.620 ,2,0,0.,4.8,1.,4.8,1.,4.8,0.,4.8
1981-08-30 15:19:12.420 ,1,0,0.,4.8,1.,4.8,0.,4.8,1.,4.8
1981-08-30 15:19:17.220 ,1,0,0.,4.8,3.,4.8,0.,4.8,0.,4.8
1981-08-30 15:19:22.020 ,1,0,0.,4.8,1.,4.8,0.,4.8,1.,4.8
1981-08-30 15:19:26.820 ,1,0,0.,4.8,2.,4.8,0.,4.8,0.,4.8
1981-08-30 15:19:31.620 ,1,0,0.,4.8,1.,4.8,1.,4.8,0.,4.8
1981-08-30 15:19:36.420 ,1,0,0.,4.8,0.,4.8,2.,4.8,0.,4.8
1981-08-30 15:19:41.220 ,1,0,0.,4.8,1.,4.8,1.,4.8,0.,4.8
1981-08-30 15:19:46.020 ,1,0,0.,4.8,2.,4.8,2.,4.8,0.,4.8
1981-08-30 15:19:50.820 ,1,0,0.,4.8,0.,4.8,0.,4.8,0.,4.8
1981-08-30 15:19:55.620 ,1,0,0.,4.8,0.,4.8,0.,4.8,1.,4.8
1981-08-30 15:20:00.420 ,0,0,0.,4.8,4.,4.8,1.,4.8,0.,4.8
1981-08-30 15:20:05.220 ,0,0,0.,4.8,1.,4.8,0.,4.8,0.,4.8
1981-08-30 15:20:10.020 ,0,0,0.,4.8,2.,4.8,1.,4.8,0.,4.8
1981-08-30 15:20:14.820 ,0,0,0.,4.8,5.,4.8,1.,4.8,0.,4.8
1981-08-30 15:20:19.620 ,0,0,0.,4.8,3.,4.8,0.,4.8,0.,4.8
1981-08-30 15:20:24.420 ,0,0,0.,4.8,2.,4.8,0.,4.8,0.,4.8
1981-08-30 15:20:29.220 ,0,0,0.,4.8,2.,4.8,4.,4.8,1.,4.8
1981-08-30 15:20:34.020 ,0,0,,0,,0,,0,,0
1981-08-30 15:20:38.820 ,0,0,0.,4.8,2.,4.8,0.,4.8,1.,4.8
1981-08-30 15:20:43.620 ,0,0,0.,4.8,3.,4.8,2.,4.8,0.,4.8
1981-08-30 15:20:48.420 ,0,0,0.,4.8,1.,4.8,1.,4.8,0.,4.8
1981-08-30 15:20:53.220 ,0,0,0.,4.8,1.,4.8,3.,4.8,1.,4.8
1981-08-30 15:20:58.020 ,0,0,0.,4.8,0.,4.8,0.,4.8,0.,4.8
1981-08-30 15:21:02.820 ,0,0,0.,4.8,3.,4.8,1.,4.8,0.,4.8
1981-08-30 15:21:07.620 ,0,0,0.,4.8,3.,4.8,1.,4.8,0.,4.8
1981-08-30 15:21:12.420 ,0,0,0.,4.8,1.,4.8,1.,4.8,0.,4.8
1981-08-30 15:21:17.220 ,0,0,0.,4.8,3.,4.8,1.,4.8,1.,4.8
1981-08-30 15:21:22.020 ,0,0,0.,4.8,1.,4.8,0.,4.8,0.,4.8
1981-08-30 15:21:26.820 ,0,0,0.,4.8,3.,4.8,2.,4.8,0.,4.8
1981-08-30 15:21:31.620 ,0,0,0.,4.8,1.,4.8,0.,4.8,1.,4.8
1981-08-30 15:21:36.420 ,1,0,0.,4.8,2.,4.8,0.,4.8,0.,4.8
1981-08-30 15:21:41.220 ,1,0,0.,4.8,0.,4.8,0.,4.8,0.,4.8
1981-08-30 15:21:46.020 ,1,0,0.,4.8,1.,4.8,1.,4.8,0.,4.8
1981-08-30 15:21:50.820 ,1,0,0.,4.8,2.,4.8,0.,4.8,0.,4.8
1981-08-30 15:21:55.620 ,1,0,0.,4.8,2.,4.8,0.,4.8,1.,4.8
1981-08-30 15:22:00.420 ,1,0,0.,4.8,2.,4.8,0.,4.8,0.,4.8
1981-08-30 15:22:05.220 ,1,0,0.,4.8,0.,4.8,1.,4.8,0.,4.8
1981-08-30 15:22:10.020 ,1,0,0.,4.8,1.,4.8,0.,4.8,1.,4.8
1981-08-30 15:22:14.820 ,1,0,0.,4.8,4.,4.8,0.,4.8,0.,4.8
1981-08-30 15:22:19.620 ,1,0,0.,4.8,2.,4.8,3.,4.8,0.,4.8
1981-08-30 15:22:24.420 ,2,0,0.,4.8,2.,4.8,1.,4.8,1.,4.8
1981-08-30 15:22:29.220 ,2,0,0.,4.8,2.,4.8,0.,4.8,0.,4.8
1981-08-30 15:22:34.020 ,2,0,0.,4.8,0.,4.8,1.,4.8,0.,4.8
1981-08-30 15:22:38.820 ,2,0,0.,4.8,2.,4.8,0.,4.8,0.,4.8
1981-08-30 15:22:43.620 ,2,0,0.,4.8,1.,4.8,1.,4.8,1.,4.8
1981-08-30 15:22:48.420 ,2,0,0.,4.8,1.,4.8,0.,4.8,0.,4.8
1981-08-30 15:22:53.220 ,2,0,0.,4.8,2.,4.8,0.,4.8,1.,4.8
1981-08-30 15:22:58.020 ,2,0,0.,4.8,0.,4.8,1.,4.8,0.,4.8
1981-08-30 15:23:02.820 ,2,0,0.,4.8,1.,4.8,0.,4.8,0.,4.8
1981-08-30 15:23:07.620 ,2,0,0.,4.8,2.,4.8,1.,4.8,0.,4.8
1981-08-30 15:23:12.420 ,3,0,0.,4.8,1.,4.8,1.,4.8,0.,4.8
1981-08-30 15:23:17.220 ,3,0,0.,4.8,0.,4.8,0.,4.8,0.,4.8
1981-08-30 15:23:22.020 ,3,0,0.,4.8,2.,4.8,0.,4.8,1.,4.8
1981-08-30 15:23:26.820 ,3,0,0.,4.8,1.,4.8,0.,4.8,1.,4.8
1981-08-30 15:23:31.620 ,3,0,0.,4.8,5.,4.8,0.,4.8,0.,4.8
1981-08-30 15:23:36.420 ,4,0,0.,4.8,2.,4.8,1.,4.8,0.,4.8
1981-08-30 15:23:41.220 ,4,0,0.,4.8,0.,4.8,2.,4.8,0.,4.8
1981-08-30 15:23:46.020 ,4,0,0.,4.8,1.,4.8,1.,4.8,0.,4.8
1981-08-30 15:23:50.820 ,4,0,0.,4.8,1.,4.8,0.,4.8,0.,4.8
1981-08-30 15:23:55.620 ,4,0,0.,4.8,1.,4.8,1.,4.8,0.,4.8
1981-08-30 15:24:00.420 ,5,0,0.,4.8,3.,4.8,0.,4.8,0.,4.8
1981-08-30 15:24:05.220 ,5,0,0.,4.8,0.,4.8,1.,4.8,0.,4.8
1981-08-30 15:24:10.020 ,5,0,0.,4.8,2.,4.8,0.,4.8,0.,4.8
1981-08-30 15:24:14.820 ,5,0,0.,4.8,2.,4.8,0.,4.8,0.,4.8
1981-08-30 15:24:19.620 ,5,0,0.,4.8,0.,4.8,2.,4.8,1.,4.8
1981-08-30 15:24:24.420 ,6,0,0.,4.8,3.,4.8,0.,4.8,0.,4.8
1981-08-30 15:24:29.220 ,6,0,0.,4.8,2.,4.8,1.,4.8,0.,4.8
1981-08-30 15:24:34.020 ,6,0,0.,4.8,3.,4.8,2.,4.8,0.,4.8
1981-08-30 15:24:38.820 ,6,0,0.,4.8,2.,4.8,0.,4.8,1.,4.8
1981-08-30 15:24:43.620 ,6,0,0.,4.8,5.,4.8,1.,4.8,1.,4.8
1981-08-30 15:24:48.420 ,7,0,0.,4.8,3.,4.8,1.,4.8,0.,4.8
1981-08-30 15:24:53.220 ,7,0,0.,4.8,0.,4.8,1.,4.8,0.,4.8
1981-08-30 15:24:58.020 ,7,0,0.,4.8,0.,4.8,0.,4.8,0.,4.8
1981-08-30 15:25:02.820 ,7,0,0.,4.8,2.,4.8,0.,4.8,0.,4.8
1981-08-30 15:25:07.620 ,7,0,0.,4.8,1.,4.8,0.,4.8,0.,4.8
1981-08-30 15:25:12.420 ,7,0,0.,4.8,1.,4.8,0.,4.8,0.,4.8
1981-08-30 15:25:17.220 ,7,0,0.,4.8,0.,4.8,0.,4.8,0.,4.8
1981-08-30 15:25:22.020 ,7,0,0.,4.8,0.,4.8,0.,4.8,0.,4.8
1981-08-30 15:25:26.820 ,7,0,0.,4.8,1.,4.8,0.,4.8,0.,4.8
1981-08-30 15:25:31.620 ,7,0,0.,4.8,2.,4.8,0.,4.8,0.,4.8
1981-08-30 15:25:36.420 ,6,0,0.,4.8,0.,4.8,0.,4.8,0.,4.8
1981-08-30 15:25:41.220 ,6,0,0.,4.8,0.,4.8,0.,4.8,1.,4.8
1981-08-30 15:25:46.020 ,6,0,0.,4.8,0.,4.8,1.,4.8,0.,4.8
1981-08-30 15:25:50.820 ,6,0,0.,4.8,5.,4.8,1.,4.8,0.,4.8
1981-08-30 15:25:55.620 ,6,0,0.,4.8,1.,4.8,1.,4.8,0.,4.8
1981-08-30 15:26:00.420 ,5,0,0.,4.8,4.,4.8,0.,4.8,0.,4.8
1981-08-30 15:26:05.220 ,5,0,0.,4.8,1.,4.8,2.,4.8,1.,4.8
1981-08-30 15:26:10.020 ,5,0,0.,4.8,3.,4.8,0.,4.8,1.,4.8
1981-08-30 15:26:14.820 ,5,0,0.,4.8,0.,4.8,0.,4.8,1.,4.8
1981-08-30 15:26:19.620 ,5,0,0.,4.8,1.,4.8,1.,4.8,0.,4.8
1981-08-30 15:26:24.420 ,4,0,0.,4.8,5.,4.8,2.,4.8,0.,4.8
1981-08-30 15:26:29.220 ,4,0,0.,4.8,1.,4.8,1.,4.8,0.,4.8
1981-08-30 15:26:34.020 ,4,0,0.,4.8,2.,4.8,0.,4.8,0.,4.8
1981-08-30 15:26:38.820 ,4,0,0.,4.8,2.,4.8,0.,4.8,1.,4.8
1981-08-30 15:26:43.620 ,4,0,0.,4.8,1.,4.8,1.,4.8,0.,4.8
1981-08-30 15:26:48.420 ,3,0,0.,4.8,0.,4.8,2.,4.8,0.,4.8
1981-08-30 15:26:53.220 ,3,0,0.,4.8,3.,4.8,2.,4.8,1.,4.8
1981-08-30 15:26:58.020 ,3,0,0.,4.8,1.,4.8,1.,4.8,0.,4.8
1981-08-30 15:27:02.820 ,3,0,0.,4.8,0.,4.8,3.,4.8,0.,4.8
1981-08-30 15:27:07.620 ,3,0,0.,4.8,2.,4.8,1.,4.8,0.,4.8
1981-08-30 15:27:12.420 ,2,0,0.,4.8,2.,4.8,0.,4.8,0.,4.8
1981-08-30 15:27:17.220 ,2,0,0.,4.8,0.,4.8,1.,4.8,1.,4.8
1981-08-30 15:27:22.020 ,2,0,0.,4.8,2.,4.8,0.,4.8,0.,4.8
1981-08-30 15:27:26.820 ,2,0,0.,4.8,2.,4.8,0.,4.8,0.,4.8
1981-08-30 15:27:31.620 ,2,0,0.,4.8,3.,4.8,0.,4.8,0.,4.8
1981-08-30 15:27:36.420 ,1,0,0.,4.8,4.,4.8,0.,4.8,0.,4.8
1981-08-30 15:27:41.220 ,1,0,0.,4.8,3.,4.8,0.,4.8,2.,4.8
1981-08-30 15:27:46.020 ,1,0,0.,4.8,0.,4.8,1.,4.8,0.,4.8
1981-08-30 15:27:50.820 ,1,0,0.,4.8,5.,4.8,2.,4.8,0.,4.8
1981-08-30 15:27:55.620 ,1,0,0.,4.8,2.,4.8,0.,4.8,0.,4.8
1981-08-30 15:28:00.420 ,0,0,0.,4.8,3.,4.8,0.,4.8,0.,4.8
1981-08-30 15:28:05.220 ,0,0,0.,4.8,2.,4.8,2.,4.8,0.,4.8
1981-08-30 15:28:10.020 ,0,0,0.,4.8,2.,4.8,1.,4.8,1.,4.8
1981-08-30 15:28:14.820 ,0,0,0.,4.8,3.,4.8,0.,4.8,0.,4.8
1981-08-30 15:28:19.620 ,0,0,0.,4.8,5.,4.8,0.,4.8,0.,4.8
1981-08-30 15:28:24.420 ,0,0,0.,4.8,1.,4.8,0.,4.8,0.,4.8
1981-08-30 15:28:29.220 ,0,0,0.,4.8,5.,4.8,1.,4.8,0.,4.8
1981-08-30 15:28:34.020 ,0,0,0.,4.8,2.,4.8,1.,4.8,0.,4.8
1981-08-30 15:28:38.820 ,0,0,0.,4.8,3.,4.8,1.,4.8,1.,4.8
1981-08-30 15:28:43.620 ,0,0,0.,4.8,2.,4.8,1.,4.8,1.,4.8
1981-08-30 15:28:48.420 ,1,0,0.,4.8,1.,4.8,0.,4.8,0.,4.8
1981-08-30 15:28:53.220 ,1,0,0.,4.8,2.,4.8,1.,4.8,1.,4.8
1981-08-30 15:28:58.020 ,1,0,0.,4.8,0.,4.8,3.,4.8,0.,4.8
1981-08-30 15:29:02.820 ,1,0,0.,4.8,1.,4.8,1.,4.8,0.,4.8
1981-08-30 15:29:07.620 ,1,0,0.,4.8,1.,4.8,1.,4.8,0.,4.8
1981-08-30 15:29:12.420 ,2,0,0.,4.8,0.,4.8,0.,4.8,1.,4.8
1981-08-30 15:29:17.220 ,2,0,0.,4.8,1.,4.8,3.,4.8,2.,4.8
1981-08-30 15:29:22.020 ,2,0,0.,4.8,2.,4.8,0.,4.8,0.,4.8
1981-08-30 15:29:26.820 ,2,0,0.,4.8,0.,4.8,1.,4.8,0.,4.8
1981-08-30 15:29:31.620 ,2,0,0.,4.8,0.,4.8,1.,4.8,1.,4.8
1981-08-30 15:29:36.420 ,3,0,0.,4.8,2.,4.8,1.,4.8,1.,4.8
1981-08-30 15:29:41.220 ,3,0,0.,4.8,1.,4.8,0.,4.8,0.,4.8
1981-08-30 15:29:46.020 ,3,0,0.,4.8,3.,4.8,0.,4.8,0.,4.8
1981-08-30 15:29:50.820 ,3,0,0.,4.8,2.,4.8,0.,4.8,0.,4.8
1981-08-30 15:29:55.620 ,3,0,0.,4.8,2.,4.8,0.,4.8,0.,4.8
1981-08-30 15:30:00.420 ,3,0,0.,4.8,1.,4.8,1.,4.8,0.,4.8
1981-08-30 15:30:05.220 ,3,0,0.,4.8,1.,4.8,0.,4.8,0.,4.8
1981-08-30 15:30:10.020 ,3,0,0.,4.8,1.,4.8,1.,4.8,0.,4.8
1981-08-30 15:30:14.820 ,3,0,0.,4.8,1.,4.8,2.,4.8,0.,4.8
1981-08-30 15:30:19.620 ,3,0,0.,4.8,2.,4.8,0.,4.8,0.,4.8
1981-08-30 15:30:24.420 ,4,0,0.,4.8,2.,4.8,1.,4.8,0.,4.8
1981-08-30 15:30:29.220 ,4,0,0.,4.8,4.,4.8,2.,4.8,0.,4.8
1981-08-30 15:30:34.020 ,4,0,0.,4.8,2.,4.8,0.,4.8,0.,4.8
1981-08-30 15:30:38.820 ,4,0,0.,4.8,2.,4.8,0.,4.8,0.,4.8
1981-08-30 15:30:43.620 ,4,0,0.,4.8,3.,4.8,1.,4.8,0.,4.8
1981-08-30 15:30:48.420 ,4,0,0.,4.8,3.,4.8,0.,4.8,0.,4.8
1981-08-30 15:30:53.220 ,4,0,0.,4.8,1.,4.8,0.,4.8,0.,4.8
1981-08-30 15:30:58.020 ,4,0,0.,4.8,1.,4.8,1.,4.8,0.,4.8
1981-08-30 15:31:02.820 ,4,0,0.,4.8,0.,4.8,2.,4.8,0.,4.8
1981-08-30 15:31:07.620 ,4,0,0.,4.8,1.,4.8,0.,4.8,0.,4.8
1981-08-30 15:31:12.420 ,5,0,0.,4.8,0.,4.8,2.,4.8,0.,4.8
1981-08-30 15:31:17.220 ,5,0,0.,4.8,1.,4.8,2.,4.8,0.,4.8
1981-08-30 15:31:22.020 ,5,0,0.,4.8,1.,4.8,1.,4.8,0.,4.8
1981-08-30 15:31:26.820 ,5,0,0.,4.8,5.,4.8,0.,4.8,0.,4.8
1981-08-30 15:31:31.620 ,5,0,0.,4.8,2.,4.8,1.,4.8,0.,4.8
1981-08-30 15:31:36.420 ,5,0,0.,4.8,2.,4.8,1.,4.8,0.,4.8
1981-08-30 15:31:41.220 ,5,0,0.,4.8,1.,4.8,1.,4.8,1.,4.8
1981-08-30 15:31:46.020 ,5,0,0.,4.8,3.,4.8,0.,4.8,0.,4.8
1981-08-30 15:31:50.820 ,5,0,0.,4.8,1.,4.8,0.,4.8,0.,4.8
1981-08-30 15:31:55.620 ,5,0,0.,4.8,2.,4.8,1.,4.8,1.,4.8
1981-08-30 15:32:00.420 ,6,0,0.,4.8,4.,4.8,0.,4.8,0.,4.8
1981-08-30 15:32:05.220 ,6,0,0.,4.8,0.,4.8,1.,4.8,0.,4.8
1981-08-30 15:32:10.020 ,6,0,0.,4.8,3.,4.8,1.,4.8,1.,4.8
1981-08-30 15:32:14.820 ,6,0,0.,4.8,1.,4.8,0.,4.8,1.,4.8
1981-08-30 15:32:19.620 ,6,0,0.,4.8,1.,4.8,1.,4.8,0.,4.8
1981-08-30 15:32:24.420 ,6,0,0.,4.8,3.,4.8,0.,4.8,0.,4.8
1981-08-30 15:32:29.220 ,6,0,0.,4.8,2.,4.8,0.,4.8,0.,4.8
1981-08-30 15:32:34.020 ,6,0,0.,4.8,1.,4.8,1.,4.8,0.,4.8
1981-08-30 15:32:38.820 ,6,0,0.,4.8,2.,4.8,0.,4.8,0.,4.8
1981-08-30 15:32:43.620 ,6,0,0.,4.8,3.,4.8,0.,4.8,0.,4.8
1981-08-30 15:32:48.420 ,7,0,0.,4.8,1.,4.8,0.,4.8,0.,4.8
1981-08-30 15:32:53.220 ,7,0,0.,4.8,2.,4.8,1.,4.8,0.,4.8
1981-08-30 15:32:58.020 ,7,0,0.,4.8,1.,4.8,0.,4.8,0.,4.8
1981-08-30 15:33:02.820 ,7,0,0.,4.8,0.,4.8,1.,4.8,0.,4.8
1981-08-30 15:33:07.620 ,7,0,0.,4.8,0.,4.8,1.,4.8,0.,4.8
1981-08-30 15:33:12.420 ,7,0,0.,4.8,0.,4.8,0.,4.8,0.,4.8
1981-08-30 15:33:17.220 ,7,0,0.,4.8,0.,4.8,0.,4.8,0.,4.8
1981-08-30 15:33:22.020 ,7,0,0.,4.8,0.,4.8,0.,4.8,1.,4.8